Tracking 19846 objects as of 18-Sep-2019
HD Live streaming from Space Station
objects crossing your sky now

FENGYUN 1C DEB

Track FENGYUN 1C DEB now!
10-day predictions


NORAD ID: 31066
Int'l Code: 1999-025BFL
Perigee: 473.8 km
Apogee: 730.7 km
Inclination: 99.0 °
Period: 96.6 minutes
Semi major axis: 6973 km
RCS: 0.002 m2 (small)
Launch date: May 10, 1999
Source: People's Republic of China (PRC)
Launch site: Taiyaun Space Center, China (TSC)

Note: This is SATELLITE DEBRIS
aabbcc
Your satellite tracking list
Your tracking list is empty




NASA's NSSDC Master Catalog

Two Line Element Set (TLE):
1 31066U 99025BFL 19261.41728431  .00000910  00000-0  73861-4 0  9999
2 31066  99.0303 118.5525 0184197 261.3074  96.7238 14.90910791675590
Source of the keplerian elements: AFSPC